Home   Weather   Chicago   Past weeks
Flag for USA

Past Weather in Chicago, Illinois, USA — Yesterday and Last 2 Weeks

Now
59 °F

Mostly cloudy.


Feels Like: 57 °F
Forecast: 53 / 45 °F
Wind: 13 mph from West

Location: Chicago Midway Airport

Current Time: May 20, 2019 at 12:12:01 am

Latest Report: May 19, 2019 at 11:29 pm


Visibility: 10 mi

Pressure: 29.81 "Hg

Humidity: 72%

Dew Point: 50 °F

Location of ChicagoLocation

Past Weather in Chicago — Graph

°F

Chicago Temperature Yesterday

Maximum temperature yesterday: 73 °F (at 12:53 pm)
Minimum temperature yesterday: 53 °F (at 1:53 am)
Average temperature yesterday: 66 °F

High & Low Weather Summary for the Past Weeks

 TemperatureHumidityPressure
High83 °F (May 18, 12:53 pm)100% (May 9, 3:53 am)30.26 "Hg (May 9, 3:53 am)
Low43 °F (May 12, 8:53 pm)26% (May 14, 3:53 pm)29.57 "Hg (May 19, 12:53 pm)
Average57 °F70%29.91 "Hg
* Reported May 4 10:53 pm — May 19 10:53 pm, Chicago. Weather by CustomWeather, © 2019

Note: Actual official high and low records may vary slightly from our data, if they occured in-between our weather recording intervals... More about our weather records

Advertising

Chicago Weather History for the Previous 24 Hours

Scroll right to see more
 ConditionsComfort  
Time TempWeatherWind HumidityBarometerVisibility
10:53 pm
Sun, May 19
59 °FPassing clouds.13 mph72%29.79 "Hg10 mi
9:53 pm62 °FPartly cloudy.25 mph65%29.76 "Hg10 mi
8:53 pm65 °FPassing clouds.22 mph70%29.72 "Hg10 mi
7:53 pm67 °FPartly sunny.18 mph66%29.68 "Hg10 mi
6:53 pm69 °FBroken clouds.15 mph63%29.66 "Hg10 mi
5:53 pm72 °FBroken clouds.20 mph57%29.63 "Hg10 mi
4:53 pm70 °FBroken clouds.17 mph64%29.60 "Hg10 mi
3:53 pm73 °FBroken clouds.18 mph59%29.58 "Hg10 mi
2:53 pm71 °FLight rain. Broken clouds.29 mph68%29.58 "Hg10 mi
2:11 pm71 °FBroken clouds.18 mph73%29.58 "Hg10 mi
1:53 pm67 °FThunderstorms. Broken clouds.24 mph81%29.58 "Hg4 mi
1:33 pm65 °FThunderstorms. Broken clouds.15 mph85%29.58 "Hg5 mi
12:53 pm73 °FBroken clouds.18 mph66%29.57 "Hg10 mi
12:13 pm72 °FBroken clouds.21 mph73%29.61 "Hg10 mi
11:53 am71 °FBroken clouds.18 mph76%29.59 "Hg10 mi
10:53 am69 °FMostly cloudy.16 mph79%29.60 "Hg10 mi
9:53 am68 °FPartly sunny.16 mph82%29.60 "Hg10 mi
8:53 am68 °FLight rain. Broken clouds.16 mph84%29.59 "Hg10 mi
8:07 am70 °FPartly sunny.18 mph76%29.62 "Hg10 mi
6:53 am69 °FBroken clouds.15 mph79%29.59 "Hg10 mi
5:53 am68 °FPartly sunny.12 mph78%29.59 "Hg10 mi
4:53 am68 °FLight rain. Mostly cloudy.9 mph84%29.61 "Hg10 mi
3:53 am56 °FOvercast.3 mph97%29.61 "Hg8 mi
2:53 am53 °FLight rain. Fog.6 mph93%29.64 "Hg6 mi
1:53 am53 °FPassing clouds.6 mph93%29.65 "Hg10 mi
12:53 am55 °FPartly cloudy.8 mph93%29.67 "Hg10 mi
12:34 am57 °FPassing clouds.9 mph90%29.70 "Hg10 mi
Weather by CustomWeather, © 2019

See weather overview